Simultaneous Nadir Overpasses (SNOs) Predictions

Prediction of SNOs between GOES-17 and METOP-B Satellite Orbit:

Table of predicted SNOs for the next 14.0 days since TLE Epoch: 11/19/2022
Index Date Time (GOES-17) GOES-17 Lat,Lon METOP-B Lat,Lon Distance(km) Time Diff (sec)
1 11/19/2022 18:49:53 -0.03,-137.34 0.58,-140.17 321.91 80
2 11/20/2022 18:31:53 -0.03,-137.33 -0.54,-135.17 247.07 80
3 11/22/2022 06:50:53 0.03,-137.31 -0.51,-139.76 278.08 80
4 11/23/2022 06:27:33 0.03,-137.30 0.61,-134.76 290.26 80
5 11/24/2022 18:46:24 -0.02,-137.29 0.42,-139.32 230.29 80
6 11/25/2022 18:28:25 -0.02,-137.28 -0.70,-134.32 337.47 80
7 11/27/2022 06:47:24 0.01,-137.24 -0.35,-138.91 189.44 80
8 11/28/2022 06:26:44 0.00,-137.22 0.72,-133.90 377.89 80
9 11/29/2022 18:42:55 0.00,-137.20 0.31,-138.46 144.00 80
10 11/30/2022 18:24:56 0.00,-137.18 -0.82,-133.46 423.26 80
11 12/02/2022 06:43:55 -0.00,-137.14 -0.22,-138.05 104.06 80
